This is the latest recevied weather packets stored in our database for station/object N0QV. If no packets are shown the sender has not sent any weather packets the latest 1 day(s).
| Time | Temp. | Humidity | Pressure | Rain* | Wind** | Luminosity | Snow |
|---|---|---|---|---|---|---|---|
| 1778019374 | 11.11° C | 34% | 1011.2 hPa | 0 mm | 1.34 m/s, 303° | 381 W/m² | - |
| 1778019071 | 11.11° C | 33% | 1011.1 hPa | 0 mm | 1.79 m/s, 308° | 149 W/m² | - |
| 1778018768 | 11.67° C | 32% | 1011.2 hPa | 0 mm | 3.13 m/s, 324° | 147 W/m² | - |
| 1778018466 | 11.11° C | 34% | 1011.4 hPa | 0 mm | 1.34 m/s, 276° | 193 W/m² | - |
| 1778018163 | 11.11° C | 33% | 1011.4 hPa | 0 mm | 1.34 m/s, 263° | 180 W/m² | - |
| 1778017861 | 11.67° C | 33% | 1011.3 hPa | 0 mm | 2.68 m/s, 315° | 162 W/m² | - |
| 1778017559 | 11.11° C | 34% | 1011.3 hPa | 0 mm | 1.34 m/s, 283° | 183 W/m² | - |
| 1778017256 | 11.11° C | 35% | 1011.4 hPa | 0 mm | 1.34 m/s, 269° | 134 W/m² | - |
| 1778016954 | 11.11° C | 34% | 1011.5 hPa | 0 mm | 0.89 m/s, 280° | 141 W/m² | - |
| 1778016650 | 11.11° C | 34% | 1011.4 hPa | 0 mm | 1.34 m/s, 301° | 128 W/m² | - |
| 1778016346 | 11.11° C | 34% | 1011.3 hPa | 0 mm | 1.79 m/s, 247° | 142 W/m² | - |
| 1778016044 | 11.67° C | 36% | 1011.5 hPa | 0 mm | 1.34 m/s, 352° | 181 W/m² | - |
| 1778015740 | 12.22° C | 33% | 1011.4 hPa | 0 mm | 2.68 m/s, 320° | 327 W/m² | - |
| 1778015437 | 13.33° C | 32% | 1011.4 hPa | 0 mm | 2.68 m/s, 293° | 137 W/m² | - |
| 1778015134 | 12.22° C | 31% | 1011.3 hPa | 0 mm | 2.24 m/s, 257° | 609 W/m² | - |
| 1778014831 | 13.33° C | 33% | 1011.6 hPa | 0 mm | 1.79 m/s, 258° | 591 W/m² | - |
| 1778014529 | 12.22° C | 31% | 1011.5 hPa | 0 mm | 3.13 m/s, 330° | 381 W/m² | - |
| 1778014226 | 12.22° C | 33% | 1011.7 hPa | 0 mm | 1.34 m/s, 294° | 445 W/m² | - |
| 1778013924 | 11.67° C | 36% | 1011.6 hPa | 0 mm | 1.79 m/s, 270° | 339 W/m² | - |
| 1778013621 | 11.67° C | 35% | 1011.9 hPa | 0 mm | 1.79 m/s, 256° | 314 W/m² | - |
| 1778013317 | 10.56° C | 33% | 1011.8 hPa | 0 mm | 1.34 m/s, 279° | 208 W/m² | - |
| 1778013014 | 11.11° C | 36% | 1011.5 hPa | 0 mm | 1.79 m/s, 272° | 154 W/m² | - |
| 1778012710 | 11.11° C | 36% | 1011.7 hPa | 0 mm | 1.34 m/s, 253° | 170 W/m² | - |
| 1778012406 | 11.67° C | 33% | 1011.8 hPa | 0 mm | 1.79 m/s, 279° | 230 W/m² | - |
| 1778012104 | 12.78° C | 33% | 1011.7 hPa | 0 mm | 1.79 m/s, 327° | 451 W/m² | - |
* Rain latest hour (hover to see other rain measurements)
** Current wind speed in m/s (hover to see current wind gust speed)